Location: Appleton
(44.2618°N, 88.4157°W)
Time: 11:45:51
(UTC+00:00)

S-56A Canister/Altair - Pass Details

Date: 05 March 2021
Orbit: 632 x 2500 km, 38.9° (Epoch: 18 April)

Event Time Altitude Azimuth Distance (km) Brightness Sun altitude
Rises 22:39:17 0° 273° (W) 5,990 13.5 11.0°
Reaches altitude 10° 22:43:05 10° 271° (W) 5,085 13.4 10.4°
Maximum altitude 22:57:59 66° 194° (SSW) 2,600 10.5 7.8°
Drops below altitude 10° 23:11:06 10° 116° (ESE) 4,531 11.0 5.6°
Sets 23:14:17 0° 114° (ESE) 5,327 11.3 5.0°
